Location: Marcé
(47.5801°N, 0.3280°W)
Time: 10:50:09
(UTC+01:00)

deb Explorer IX - Pass Details

Date: 05 December 2021
Orbit: 544 x 1082 km, 38.8° (Epoch: 17 January)

Event Time Altitude Azimuth Distance (km) Brightness Sun altitude
Rises 12:28:00 0° 246° (WSW) 2,963 ? 19.8°
Reaches altitude 10° 12:30:46 10° 234° (SW) 1,973 ? 19.8°
Maximum altitude 12:34:27 25° 178° (S) 1,170 ? 19.9°
Drops below altitude 10° 12:37:54 10° 122° (ESE) 1,831 ? 19.9°
Sets 12:40:22 0° 109° (ESE) 2,702 ? 19.9°
